User: anonymous   Login
Location: La Pernelle
(49.6188°N, 1.2999°W)
Time: 08:40:32
(UTC+00:00)
Language:

Meteor 2-10 Rocket - Orbit

View from above orbital plane
View from above orbital plane
View from above satellite
View from above satellite

Ground track
Ground track

The orbit data is extracted from the following two-line orbital elements,

1 14453U 83109B   21265.48937683  .00000062  00000-0  20452-4 0  9997
2 14453  81.1691 338.5502 0103971 234.8209 124.3199 14.24755489969349
Epoch (UTC): 22 September 2021 11:44:42
Eccentricity: 0.0103971
inclination: 81.1691°
perigee height: 734 km
apogee height: 884 km
right ascension of ascending node: 338.5502°
argument of perigee: 234.8209°
revolutions per day: 14.24755489
mean anomaly at epoch: 124.3199°
orbit number at epoch: 96934

The dashed part of the orbit path shows where the satellite is in the earth's shadow,  

DLR